KE4OGG Weather Reports


time (UTC)temp
C
wind
direction
speed
KPH
gust
KPH
rain 1hr
cm
rain 24hr
cm
rain mn
cm
humidity
%
barometer
mb
20260906090523 21 0 0.0 0.0 0.00 0.00 0.00 80 1012.8
20260906090048 21 0 0.0 0.0 0.00 0.00 0.00 80 1013.0
20260906085523 21 0 0.0 0.0 0.00 0.00 0.00 80 1013.0
20260906085023 21 0 0.0 0.0 0.00 0.00 0.00 80 1013.0
20260906084551 21 0 0.0 0.0 0.00 0.00 0.00 80 1012.9
20260906084025 21 0 0.0 0.0 0.00 0.00 0.00 81 1012.9
20260906083524 21 0 0.0 0.0 0.00 0.00 0.00 80 1013.0
20260906083045 21 0 0.0 0.0 0.00 0.00 0.00 79 1012.8
20260906082524 21 0 0.0 0.0 0.00 0.00 0.00 79 1012.9
20260906082026 21 0 0.0 0.0 0.00 0.00 0.00 79 1012.9
20260906081546 21 0 0.0 0.0 0.00 0.00 0.00 79 1012.9
20260906081024 21 0 0.0 0.0 0.00 0.00 0.00 79 1012.8
20260906080524 21 0 0.0 0.0 0.00 0.00 0.00 79 1012.7
20260906080044 21 0 0.0 0.0 0.00 0.00 0.00 79 1012.7
20260906075525 21 0 0.0 0.0 0.00 0.00 0.00 79 1012.6
20260906075025 21 0 0.0 0.0 0.00 0.00 0.00 79 1012.5
20260906074543 21 0 0.0 0.0 0.00 0.00 0.00 79 1012.5
20260906074027 21 0 0.0 0.0 0.00 0.00 0.00 79 1012.7
20260906073527 21 0 0.0 0.0 0.00 0.00 0.00 79 1012.7
20260906073047 21 0 0.0 0.0 0.00 0.00 0.00 79 1012.7
20260906072525 21 0 0.0 0.0 0.00 0.00 0.00 78 1012.8
20260906072023 21 0 0.0 0.0 0.00 0.00 0.00 77 1012.9
20260906071557 21 0 0.0 0.0 0.00 0.00 0.00 75 1012.8
20260906071024 21 0 0.0 0.0 0.00 0.00 0.00 75 1012.9
20260906070524 21 0 0.0 0.0 0.00 0.00 0.00 75 1012.9
20260906070044 21 0 0.0 0.0 0.00 0.00 0.00 75 1012.9
20260906065524 21 0 0.0 0.0 0.00 0.00 0.00 74 1012.8
20260906065024 21 0 0.0 0.0 0.00 0.00 0.00 74 1012.8
20260906064542 22 0 0.0 0.0 0.00 0.00 0.00 74 1012.9
20260906064025 22 0 0.0 0.0 0.00 0.00 0.00 73 1012.9
20260906063524 22 0 0.0 0.0 0.00 0.00 0.00 73 1013.0
20260906063053 22 0 0.0 0.0 0.00 0.00 0.00 73 1013.2
20260906062525 22 0 0.0 0.0 0.00 0.00 0.00 73 1013.3
20260906062025 22 0 0.0 0.0 0.00 0.00 0.00 72 1013.4
20260906061546 22 0 0.0 0.0 0.00 0.00 0.00 72 1013.4
20260906061023 22 0 0.0 0.0 0.00 0.00 0.00 72 1013.5
20260906060523 22 0 0.0 0.0 0.00 0.00 0.00 71 1013.4
20260906060045 22 0 0.0 0.0 0.00 0.00 0.00 71 1013.6
20260906055525 22 0 0.0 0.0 0.00 0.00 0.00 70 1013.5
20260906055024 22 0 0.0 0.0 0.00 0.00 0.00 71 1013.5
20260906054550 22 0 0.0 0.0 0.00 0.00 0.00 72 1013.6
20260906054021 22 0 0.0 1.6 0.00 0.00 0.00 72 1013.7
20260906053525 22 0 0.0 1.6 0.00 0.00 0.00 73 1013.7
20260906053052 22 326 0.0 1.6 0.00 0.00 0.00 73 1013.8
20260906052526 22 0 0.0 0.0 0.00 0.00 0.00 72 1013.9
20260906052028 22 0 0.0 0.0 0.00 0.00 0.00 72 1013.9
20260906051546 22 0 0.0 0.0 0.00 0.00 0.00 72 1013.8
20260906051027 22 0 0.0 0.0 0.00 0.00 0.00 72 1013.9
20260906050526 22 0 0.0 0.0 0.00 0.00 0.00 72 1014.0
20260906050046 22 0 0.0 0.0 0.00 0.00 0.00 70 1014.1
20260906045526 22 0 0.0 0.0 0.00 0.00 0.00 70 1014.0
20260906045024 22 0 0.0 0.0 0.00 0.00 0.00 70 1014.0
20260906044548 22 0 0.0 0.0 0.00 0.00 0.00 70 1014.1
20260906044023 22 0 0.0 0.0 0.00 0.00 0.00 70 1014.1
20260906043525 22 0 0.0 0.0 0.00 0.00 0.00 69 1014.0
20260906043045 22 0 0.0 0.0 0.00 0.00 0.00 69 1013.9
20260906042524 22 0 0.0 0.0 0.00 0.00 0.00 68 1014.0
20260906042024 22 0 0.0 0.0 0.00 0.00 0.00 68 1014.0
20260906041552 22 0 0.0 0.0 0.00 0.00 0.00 68 1014.2
20260906041027 22 0 0.0 0.0 0.00 0.00 0.00 68 1014.3
20260906040524 22 0 0.0 1.6 0.00 0.00 0.00 67 1014.2
20260906040045 22 0 0.0 1.6 0.00 0.00 0.00 67 1014.3
20260906035525 23 0 0.0 1.6 0.00 0.00 0.00 67 1014.3
20260906035021 23 0 0.0 1.6 0.00 0.00 0.00 67 1014.4
20260906034549 23 327 0.0 1.6 0.00 0.00 0.00 67 1014.4
20260906034025 22 0 0.0 1.6 0.00 0.00 0.00 67 1014.3
20260906033524 23 0 0.0 1.6 0.00 0.00 0.00 67 1014.2
20260906033046 23 0 0.0 1.6 0.00 0.00 0.00 67 1014.1
20260906032523 23 318 0.0 1.6 0.00 0.00 0.00 67 1014.1
20260906032025 23 0 0.0 1.6 0.00 0.00 0.00 66 1014.3
20260906031543 23 0 0.0 1.6 0.00 0.00 0.00 66 1014.2
20260906031023 23 0 0.0 0.0 0.00 0.00 0.00 66 1014.3
20260906030523 23 0 0.0 0.0 0.00 0.00 0.00 65 1014.2
20260906030049 23 0 0.0 1.6 0.00 0.00 0.00 65 1014.2
20260906025530 23 0 0.0 3.2 0.00 0.00 0.00 65 1014.2
20260906025025 23 0 0.0 4.8 0.00 0.00 0.00 65 1014.0
20260906024600 23 109 3.2 4.8 0.00 0.00 0.00 65 1014.0
20260906024024 23 0 0.0 0.0 0.00 0.00 0.00 65 1013.9
20260906023525 23 0 0.0 0.0 0.00 0.00 0.00 65 1013.9
20260906023044 23 0 0.0 0.0 0.00 0.00 0.00 65 1014.0
20260906022525 23 0 0.0 0.0 0.00 0.00 0.00 64 1013.8
20260906022028 23 0 0.0 0.0 0.00 0.00 0.00 64 1013.9
20260906021546 23 0 0.0 0.0 0.00 0.00 0.00 64 1014.1
20260906021023 23 0 0.0 0.0 0.00 0.00 0.00 64 1014.1
20260906020524 23 0 0.0 0.0 0.00 0.00 0.00 64 1014.0
20260906020049 23 0 0.0 0.0 0.00 0.00 0.00 63 1013.9
20260906015524 23 0 0.0 0.0 0.00 0.00 0.00 63 1014.1
20260906015025 23 0 0.0 1.6 0.00 0.00 0.00 63 1014.1
20260906014552 23 0 0.0 1.6 0.00 0.00 0.00 62 1014.1
20260906014028 23 307 0.0 1.6 0.00 0.00 0.00 62 1014.0
20260906013522 23 0 0.0 0.0 0.00 0.00 0.00 61 1013.8
20260906013049 24 0 0.0 0.0 0.00 0.00 0.00 61 1013.7
20260906012525 24 0 0.0 0.0 0.00 0.00 0.00 61 1013.7
20260906012024 24 0 0.0 0.0 0.00 0.00 0.00 60 1013.7
20260906011547 24 0 0.0 0.0 0.00 0.00 0.00 60 1013.6
20260906011026 24 0 0.0 0.0 0.00 0.00 0.00 60 1013.5
20260906010527 24 0 0.0 0.0 0.00 0.00 0.00 60 1013.6
20260906010047 24 0 0.0 1.6 0.00 0.00 0.00 60 1013.5
20260906005523 24 0 0.0 1.6 0.00 0.00 0.00 60 1013.5
20260906005028 24 307 1.6 3.2 0.00 0.00 0.00 60 1013.6
20260906004545 25 0 1.6 3.2 0.00 0.00 0.00 60 1013.5
20260906004027 25 0 0.0 1.6 0.00 0.00 0.00 59 1013.3
20260906003527 25 293 0.0 1.6 0.00 0.00 0.00 59 1013.0
20260906003051 25 293 0.0 1.6 0.00 0.00 0.00 59 1013.0
20260906002524 25 0 0.0 0.0 0.00 0.00 0.00 58 1012.8
20260906002022 25 0 0.0 0.0 0.00 0.00 0.00 58 1012.8
20260906001549 25 0 0.0 1.6 0.00 0.00 0.00 57 1013.0
20260906001025 26 0 0.0 3.2 0.00 0.00 0.00 57 1013.1
20260906000526 26 0 1.6 3.2 0.00 0.00 0.00 57 1013.1
20260906000046 26 325 0.0 3.2 0.00 0.00 0.00 57 1012.9
20260905235529 26 0 0.0 3.2 0.00 0.00 0.00 56 1012.8
20260905235024 26 302 0.0 1.6 0.00 0.00 0.00 56 1012.9
20260905234544 26 287 0.0 1.6 0.00 0.00 0.00 56 1012.9
20260905234028 26 287 0.0 4.8 0.00 0.00 0.00 56 1013.0
20260905233524 26 292 1.6 4.8 0.00 0.00 0.00 55 1013.1
20260905233049 26 288 0.0 3.2 0.00 0.00 0.00 54 1013.1
20260905232526 26 320 0.0 3.2 0.00 0.00 0.00 54 1013.1
20260905232027 27 0 0.0 3.2 0.00 0.00 0.00 53 1013.1
20260905231546 27 296 0.0 1.6 0.00 0.00 0.00 53 1013.2
20260905231025 27 0 0.0 1.6 0.00 0.00 0.00 54 1013.2
20260905230524 27 0 0.0 1.6 0.00 0.00 0.00 53 1013.1
20260905230047 27 0 0.0 1.6 0.00 0.00 0.00 54 1013.0
20260905225526 27 298 0.0 1.6 0.00 0.00 0.00 53 1012.9
20260905225024 27 0 0.0 3.2 0.00 0.00 0.00 53 1013.0
20260905224549 27 0 0.0 3.2 0.00 0.00 0.00 53 1012.8
20260905224025 27 12 1.6 3.2 0.00 0.00 0.00 53 1012.9
20260905223525 27 288 0.0 3.2 0.00 0.00 0.00 54 1012.9
20260905223046 27 292 1.6 3.2 0.00 0.00 0.00 53 1012.9
20260905222528 27 291 1.6 4.8 0.00 0.00 0.00 53 1012.9
20260905222024 27 342 1.6 4.8 0.00 0.00 0.00 53 1013.0
20260905221546 27 12 1.6 4.8 0.00 0.00 0.00 55 1012.9
20260905221028 27 353 0.0 6.4 0.00 0.00 0.00 55 1013.0
20260905220524 27 290 0.0 6.4 0.00 0.00 0.00 55 1013.1
20260905220045 27 276 3.2 6.4 0.00 0.00 0.00 55 1013.1
20260905215522 27 350 1.6 3.2 0.00 0.00 0.00 54 1013.0
20260905215028 27 299 1.6 3.2 0.00 0.00 0.00 54 1013.1
20260905214547 27 0 0.0 1.6 0.00 0.00 0.00 54 1013.1
20260905214025 27 0 0.0 3.2 0.00 0.00 0.00 54 1013.3
20260905213525 27 0 0.0 4.8 0.00 0.00 0.00 54 1013.3
20260905213047 27 279 1.6 4.8 0.00 0.00 0.00 52 1013.3
20260905212529 28 302 0.0 4.8 0.00 0.00 0.00 52 1013.5
20260905212024 28 27 0.0 4.8 0.00 0.00 0.00 52 1013.6
20260905211545 28 298 1.6 4.8 0.00 0.00 0.00 51 1013.6
20260905211027 28 50 1.6 6.4 0.00 0.00 0.00 49 1013.6
20260905210527 28 310 1.6 6.4 0.00 0.00 0.00 49 1013.5
20260905210043 28 281 1.6 6.4 0.00 0.00 0.00 51 1013.4
20260905205523 27 0 0.0 3.2 0.00 0.00 0.00 52 1013.4
20260905205022 27 217 0.0 3.2 0.00 0.00 0.00 54 1013.3
20260905204557 27 63 0.0 3.2 0.00 0.00 0.00 54 1013.1
20260905204025 27 63 1.6 3.2 0.00 0.00 0.00 55 1013.2
20260905203529 27 0 0.0 3.2 0.00 0.00 0.00 53 1013.5
20260905203054 27 63 1.6 6.4 0.00 0.00 0.00 51 1013.5
20260905202524 27 0 0.0 6.4 0.00 0.00 0.00 50 1013.7
20260905202024 27 63 3.2 6.4 0.00 0.00 0.00 50 1013.7
20260905201545 27 25 1.6 4.8 0.00 0.00 0.00 50 1013.7
20260905201028 27 328 0.0 8.0 0.00 0.00 0.00 49 1013.7
20260905200522 27 61 1.6 12.9 0.00 0.00 0.00 49 1013.6
20260905200052 27 265 1.6 12.9 0.00 0.00 0.00 50 1013.8
20260905195525 27 105 1.6 8.0 0.00 0.00 0.00 50 1014.2
20260905195023 27 49 1.6 11.3 0.00 0.00 0.00 50 1014.3
20260905194549 28 36 3.2 11.3 0.00 0.00 0.00 49 1014.1
20260905194025 28 295 3.2 14.5 0.00 0.00 0.00 48 1014.0
20260905193526 28 300 3.2 14.5 0.00 0.00 0.00 47 1014.1
20260905193053 28 276 4.8 12.9 0.00 0.00 0.00 46 1014.2
20260905192526 29 304 4.8 12.9 0.00 0.00 0.00 45 1014.2
20260905192025 30 209 4.8 16.1 0.00 0.00 0.00 42 1014.1
20260905191552 31 283 4.8 20.9 0.00 0.00 0.00 40 1014.0
20260905191023 31 150 6.4 20.9 0.00 0.00 0.00 38 1013.9
20260905190525 32 149 4.8 17.7 0.00 0.00 0.00 35 1013.9
20260905190049 35 344 6.4 16.1 0.00 0.00 0.00 32 1014.0
20260905185527 36 271 0.0 4.8 0.00 0.00 0.00 30 1013.6
20260905185028 36 295 0.0 4.8 0.00 0.00 0.00 29 1013.2
20260905184550 36 0 0.0 6.4 0.00 0.00 0.00 27 1013.1
20260905184025 36 281 1.6 6.4 0.00 0.00 0.00 28 1013.1
20260905183525 37 240 1.6 9.7 0.00 0.00 0.00 28 1013.3
20260905183046 36 98 1.6 9.7 0.00 0.00 0.00 29 1013.4
20260905182524 36 98 4.8 9.7 0.00 0.00 0.00 30 1013.2
20260905182026 37 260 0.0 9.7 0.00 0.00 0.00 30 1013.1
20260905181546 37 89 4.8 9.7 0.00 0.00 0.00 29 1013.3
20260905181024 37 349 0.0 6.4 0.00 0.00 0.00 32 1013.4
20260905180525 37 97 3.2 6.4 0.00 0.00 0.00 32 1013.6
20260905180053 36 262 0.0 8.0 0.00 0.00 0.00 33 1013.7
20260905175525 36 295 3.2 8.0 0.00 0.00 0.00 33 1013.7
20260905175022 36 109 3.2 8.0 0.00 0.00 0.00 29 1013.7
20260905174546 36 290 1.6 4.8 0.00 0.00 0.00 32 1013.7
20260905174025 36 77 0.0 12.9 0.00 0.00 0.00 31 1013.9
20260905173526 36 82 4.8 12.9 0.00 0.00 0.00 36 1013.9
20260905173045 36 100 3.2 12.9 0.00 0.00 0.00 35 1013.9
20260905172526 36 108 1.6 9.7 0.00 0.00 0.00 34 1013.9
20260905172026 36 98 4.8 9.7 0.00 0.00 0.00 36 1013.9
20260905171544 36 295 1.6 8.0 0.00 0.00 0.00 36 1013.9
20260905171023 35 297 1.6 9.7 0.00 0.00 0.00 33 1014.0
20260905170522 35 89 3.2 12.9 0.00 0.00 0.00 38 1014.1
20260905170050 35 115 8.0 12.9 0.00 0.00 0.00 35 1014.1
20260905165525 35 77 1.6 4.8 0.00 0.00 0.00 39 1014.1
20260905165021 35 86 1.6 8.0 0.00 0.00 0.00 38 1014.3
20260905164548 35 89 3.2 11.3 0.00 0.00 0.00 38 1014.3
20260905164025 35 94 3.2 11.3 0.00 0.00 0.00 39 1014.5
20260905163528 35 90 8.0 11.3 0.00 0.00 0.00 37 1014.6
20260905163045 35 117 1.6 6.4 0.00 0.00 0.00 37 1014.8
20260905162526 35 162 1.6 6.4 0.00 0.00 0.00 38 1014.7
20260905162026 35 172 0.0 8.0 0.00 0.00 0.00 41 1014.9
20260905161545 35 311 0.0 8.0 0.00 0.00 0.00 37 1015.0
20260905161025 35 100 0.0 8.0 0.00 0.00 0.00 41 1014.8
20260905160521 34 285 0.0 3.2 0.00 0.00 0.00 41 1014.8
20260905160047 35 293 0.0 4.8 0.00 0.00 0.00 40 1014.9
20260905155525 35 0 0.0 4.8 0.00 0.00 0.00 40 1015.0
20260905155026 35 0 0.0 1.6 0.00 0.00 0.00 39 1015.1
20260905154554 35 0 0.0 3.2 0.00 0.00 0.00 39 1015.1
20260905154026 35 143 0.0 3.2 0.00 0.00 0.00 41 1015.1
20260905153528 34 29 1.6 3.2 0.00 0.00 0.00 41 1015.2
20260905153046 34 6 0.0 3.2 0.00 0.00 0.00 43 1015.3
20260905152526 33 0 0.0 4.8 0.00 0.00 0.00 46 1015.3
20260905152025 32 0 1.6 4.8 0.00 0.00 0.00 47 1015.3
20260905151549 32 278 0.0 3.2 0.00 0.00 0.00 44 1015.3
20260905151021 33 0 0.0 1.6 0.00 0.00 0.00 47 1015.3
20260905150527 32 0 0.0 1.6 0.00 0.00 0.00 49 1015.3
20260905150055 32 267 0.0 3.2 0.00 0.00 0.00 48 1015.4
20260905145528 32 26 0.0 3.2 0.00 0.00 0.00 49 1015.4
20260905145025 32 290 0.0 4.8 0.00 0.00 0.00 49 1015.4
20260905144549 32 0 0.0 4.8 0.00 0.00 0.00 50 1015.3
20260905144026 32 273 0.0 4.8 0.00 0.00 0.00 53 1015.4
20260905143524 31 286 0.0 1.6 0.00 0.00 0.00 59 1015.4
20260905143049 31 0 0.0 3.2 0.00 0.00 0.00 60 1015.4
20260905142524 30 0 0.0 3.2 0.00 0.00 0.00 64 1015.4
20260905142022 29 286 0.0 3.2 0.00 0.00 0.00 64 1015.4
20260905141544 29 0 1.6 3.2 0.00 0.00 0.00 62 1015.5
20260905141026 29 294 0.0 3.2 0.00 0.00 0.00 64 1015.5
20260905140524 30 290 0.0 1.6 0.00 0.00 0.00 65 1015.6
20260905140048 29 295 0.0 1.6 0.00 0.00 0.00 66 1015.6
20260905135521 28 0 0.0 1.6 0.00 0.00 0.00 67 1015.7
20260905135025 28 0 0.0 4.8 0.00 0.00 0.00 67 1015.8
20260905134552 28 0 0.0 4.8 0.00 0.00 0.00 68 1015.9
20260905134024 27 0 0.0 4.8 0.00 0.00 0.00 69 1015.9
20260905133529 27 0 0.0 3.2 0.00 0.00 0.00 69 1015.9
20260905133043 27 0 0.0 1.6 0.00 0.00 0.00 69 1015.8
20260905132524 27 0 0.0 1.6 0.00 0.00 0.00 70 1015.8
20260905132031 27 0 0.0 1.6 0.00 0.00 0.00 71 1015.8
20260905131550 26 0 0.0 1.6 0.00 0.00 0.00 73 1015.7
20260905131026 25 0 0.0 1.6 0.00 0.00 0.00 75 1015.6
20260905130525 25 0 0.0 1.6 0.00 0.00 0.00 75 1015.7
20260905130048 24 0 0.0 1.6 0.00 0.00 0.00 76 1015.6
20260905125529 24 0 0.0 1.6 0.00 0.00 0.00 76 1015.6
20260905125025 24 0 0.0 0.0 0.00 0.00 0.00 77 1015.6
20260905124547 24 0 0.0 0.0 0.00 0.00 0.00 77 1015.5
20260905124025 23 0 0.0 0.0 0.00 0.00 0.00 78 1015.6
20260905123523 23 0 0.0 0.0 0.00 0.00 0.00 80 1015.5
20260905123046 23 0 0.0 0.0 0.00 0.00 0.00 81 1015.6
20260905122525 23 0 0.0 0.0 0.00 0.00 0.00 83 1015.6
20260905122022 23 0 0.0 0.0 0.00 0.00 0.00 84 1015.6
20260905121548 23 0 0.0 0.0 0.00 0.00 0.00 84 1015.6
20260905121028 23 0 0.0 0.0 0.00 0.00 0.00 84 1015.5
20260905120522 23 0 0.0 0.0 0.00 0.00 0.00 84 1015.4
20260905120046 23 0 0.0 0.0 0.00 0.00 0.00 85 1015.3
20260905115523 23 0 0.0 0.0 0.00 0.00 0.00 85 1015.3
20260905115024 22 0 0.0 0.0 0.00 0.00 0.00 85 1015.2
20260905114546 22 0 0.0 0.0 0.00 0.00 0.00 85 1015.2
20260905114025 22 0 0.0 0.0 0.00 0.00 0.00 85 1015.2
20260905113526 22 0 0.0 0.0 0.00 0.00 0.00 85 1015.2
20260905113042 22 0 0.0 0.0 0.00 0.00 0.00 85 1015.1
20260905112525 22 0 0.0 0.0 0.00 0.00 0.00 85 1015.0
20260905112024 22 0 0.0 0.0 0.00 0.00 0.00 84 1014.9
20260905111619 22 0 0.0 0.0 0.00 0.00 0.00 85 1014.8
20260905111025 22 0 0.0 0.0 0.00 0.00 0.00 85 1014.8
20260905110525 22 0 0.0 0.0 0.00 0.00 0.00 85 1014.7
20260905110045 22 0 0.0 0.0 0.00 0.00 0.00 85 1014.7
20260905105525 22 0 0.0 0.0 0.00 0.00 0.00 85 1014.7
20260905105026 22 0 0.0 0.0 0.00 0.00 0.00 85 1014.6
20260905104544 22 0 0.0 0.0 0.00 0.00 0.00 85 1014.5
20260905104023 22 0 0.0 0.0 0.00 0.00 0.00 85 1014.6
20260905103524 22 0 0.0 0.0 0.00 0.00 0.00 85 1014.6
20260905103043 22 0 0.0 0.0 0.00 0.00 0.00 85 1014.5
20260905102527 22 0 0.0 0.0 0.00 0.00 0.00 85 1014.5
20260905102024 23 0 0.0 0.0 0.00 0.00 0.00 85 1014.5
20260905101547 23 0 0.0 0.0 0.00 0.00 0.00 85 1014.5
20260905101026 23 0 0.0 0.0 0.00 0.00 0.00 85 1014.5
20260905100525 23 0 0.0 0.0 0.00 0.00 0.00 85 1014.4
20260905100057 23 0 0.0 0.0 0.00 0.00 0.00 85 1014.4
20260905095525 23 0 0.0 0.0 0.00 0.00 0.00 85 1014.4
20260905095025 23 0 0.0 0.0 0.00 0.00 0.00 85 1014.5
20260905094547 23 0 0.0 0.0 0.00 0.00 0.00 85 1014.4
20260905094028 23 0 0.0 0.0 0.00 0.00 0.00 85 1014.4
20260905093522 23 0 0.0 0.0 0.00 0.00 0.00 85 1014.4
20260905093043 23 0 0.0 0.0 0.00 0.00 0.00 84 1014.5
20260905092521 23 0 0.0 0.0 0.00 0.00 0.00 84 1014.6
20260905092024 23 0 0.0 0.0 0.00 0.00 0.00 84 1014.5
20260905091556 23 0 0.0 0.0 0.00 0.00 0.00 83 1014.6
20260905091025 23 0 0.0 0.0 0.00 0.00 0.00 83 1014.6